TimeCDT,TemperatureF,Dew PointF,Humidity,Sea Level PressureIn,VisibilityMPH,Wind Direction,Wind SpeedMPH,Gust SpeedMPH,PrecipitationIn,Events,Conditions,WindDirDegrees,DateUTC
12:15 AM,69.3,57.6,66,30.04,10.0,South,8.1,-,N/A,,Clear,170,2013-07-12 05:15:00
12:35 AM,68.5,57.6,68,30.03,10.0,SSE,6.9,-,N/A,,Clear,160,2013-07-12 05:35:00
12:55 AM,68.0,57.7,70,30.03,10.0,South,8.1,-,N/A,,Clear,170,2013-07-12 05:55:00
1:15 AM,67.5,57.7,71,30.03,10.0,SSE,6.9,-,N/A,,Clear,160,2013-07-12 06:15:00
1:35 AM,67.1,57.6,71,30.03,10.0,South,6.9,-,N/A,,Clear,170,2013-07-12 06:35:00
1:55 AM,67.1,57.6,71,30.03,10.0,South,8.1,-,N/A,,Scattered Clouds,170,2013-07-12 06:55:00
2:15 AM,66.2,57.6,74,30.03,10.0,South,5.8,-,N/A,,Scattered Clouds,180,2013-07-12 07:15:00
2:35 AM,66.6,57.6,73,30.03,10.0,South,6.9,-,N/A,,Scattered Clouds,170,2013-07-12 07:35:00
2:55 AM,66.6,57.4,72,30.03,10.0,SSE,6.9,-,N/A,,Scattered Clouds,160,2013-07-12 07:55:00
3:15 AM,66.2,57.4,73,30.03,10.0,South,6.9,-,N/A,,Mostly Cloudy,170,2013-07-12 08:15:00
3:35 AM,66.2,57.6,74,30.04,10.0,South,6.9,-,N/A,,Scattered Clouds,170,2013-07-12 08:35:00
3:55 AM,66.6,57.6,73,30.04,10.0,South,8.1,-,N/A,,Mostly Cloudy,180,2013-07-12 08:55:00
4:15 AM,66.4,57.4,73,30.04,10.0,South,5.8,-,N/A,,Scattered Clouds,170,2013-07-12 09:15:00
4:35 AM,66.9,57.6,72,30.04,10.0,South,8.1,-,N/A,,Scattered Clouds,190,2013-07-12 09:35:00
4:55 AM,66.6,57.6,73,30.04,10.0,South,8.1,-,N/A,,Scattered Clouds,180,2013-07-12 09:55:00
5:15 AM,66.4,57.4,73,30.04,10.0,South,8.1,-,N/A,,Clear,170,2013-07-12 10:15:00
5:35 AM,66.0,57.4,74,30.05,10.0,South,6.9,-,N/A,,Clear,170,2013-07-12 10:35:00
5:55 AM,66.2,57.6,74,30.05,10.0,SSE,6.9,-,N/A,,Clear,160,2013-07-12 10:55:00
6:15 AM,66.6,57.6,73,30.05,10.0,South,8.1,-,N/A,,Clear,170,2013-07-12 11:15:00
6:35 AM,67.3,57.4,70,30.05,10.0,South,11.5,-,N/A,,Clear,170,2013-07-12 11:35:00
6:55 AM,68.2,57.4,68,30.05,10.0,SSE,10.4,-,N/A,,Clear,160,2013-07-12 11:55:00
7:15 AM,68.7,58.1,69,30.05,10.0,South,6.9,-,N/A,,Clear,170,2013-07-12 12:15:00
7:35 AM,69.8,58.1,66,30.06,10.0,South,9.2,-,N/A,,Clear,170,2013-07-12 12:35:00
7:55 AM,70.7,58.3,65,30.06,10.0,South,10.4,16.1,N/A,,Clear,170,2013-07-12 12:55:00
8:15 AM,71.6,58.5,63,30.06,10.0,South,9.2,17.3,N/A,,Clear,170,2013-07-12 13:15:00
8:35 AM,72.7,58.6,61,30.06,10.0,South,10.4,16.1,N/A,,Clear,170,2013-07-12 13:35:00
8:55 AM,73.4,58.3,59,30.06,10.0,South,11.5,-,N/A,,Clear,170,2013-07-12 13:55:00
9:15 AM,74.3,58.3,57,30.06,10.0,South,12.7,18.4,N/A,,Clear,180,2013-07-12 14:15:00
9:35 AM,74.7,58.1,56,30.06,10.0,South,15.0,19.6,N/A,,Clear,180,2013-07-12 14:35:00
9:55 AM,75.6,58.6,56,30.05,10.0,South,15.0,19.6,N/A,,Clear,170,2013-07-12 14:55:00
10:15 AM,76.1,58.6,55,30.04,10.0,South,15.0,21.9,N/A,,Clear,170,2013-07-12 15:15:00
10:35 AM,76.8,58.8,54,30.05,10.0,South,16.1,23.0,N/A,,Clear,180,2013-07-12 15:35:00
10:55 AM,77.9,59.5,53,30.04,10.0,SSE,15.0,19.6,N/A,,Clear,160,2013-07-12 15:55:00
11:15 AM,78.1,59.4,52,30.03,10.0,SSE,17.3,21.9,N/A,,Clear,160,2013-07-12 16:15:00
11:35 AM,78.8,60.4,53,30.03,10.0,South,13.8,23.0,N/A,,Clear,170,2013-07-12 16:35:00
11:55 AM,79.0,59.9,52,30.03,10.0,SSE,13.8,20.7,N/A,,Clear,160,2013-07-12 16:55:00
12:15 PM,79.7,60.3,51,30.02,10.0,SSE,17.3,21.9,N/A,,Clear,160,2013-07-12 17:15:00
12:35 PM,80.6,60.1,49,30.02,10.0,South,13.8,23.0,N/A,,Clear,180,2013-07-12 17:35:00
12:55 PM,80.6,60.1,49,30.02,10.0,South,19.6,28.8,N/A,,Clear,170,2013-07-12 17:55:00
1:15 PM,81.1,61.0,50,30.01,10.0,South,17.3,24.2,N/A,,Clear,170,2013-07-12 18:15:00
1:35 PM,81.9,60.6,48,30.00,10.0,SSE,18.4,25.3,N/A,,Clear,160,2013-07-12 18:35:00
1:55 PM,82.0,60.6,48,30.00,10.0,SSE,17.3,25.3,N/A,,Clear,160,2013-07-12 18:55:00
2:15 PM,82.6,60.3,47,30.01,10.0,South,19.6,26.5,N/A,,Clear,170,2013-07-12 19:15:00
2:35 PM,83.1,60.4,46,30.00,10.0,South,16.1,24.2,N/A,,Clear,180,2013-07-12 19:35:00
2:55 PM,83.3,60.3,46,30.00,10.0,South,19.6,24.2,N/A,,Clear,170,2013-07-12 19:55:00
3:15 PM,83.3,59.9,45,29.99,10.0,SSE,18.4,23.0,N/A,,Clear,160,2013-07-12 20:15:00
3:35 PM,83.7,60.3,45,29.99,10.0,SSE,16.1,20.7,N/A,,Clear,160,2013-07-12 20:35:00
3:55 PM,83.8,59.5,44,29.99,10.0,SSE,19.6,27.6,N/A,,Clear,160,2013-07-12 20:55:00
4:15 PM,84.2,59.4,43,29.98,10.0,South,17.3,25.3,N/A,,Clear,170,2013-07-12 21:15:00
4:35 PM,84.2,60.1,44,29.98,10.0,South,15.0,21.9,N/A,,Clear,180,2013-07-12 21:35:00
4:55 PM,84.2,61.2,46,29.97,10.0,South,12.7,24.2,N/A,,Clear,170,2013-07-12 21:55:00
5:15 PM,83.3,59.2,44,29.98,10.0,SSE,18.4,24.2,N/A,,Clear,160,2013-07-12 22:15:00
5:35 PM,83.1,58.8,44,29.98,10.0,South,18.4,24.2,N/A,,Clear,170,2013-07-12 22:35:00
5:55 PM,82.9,59.5,45,29.98,10.0,SSE,13.8,23.0,N/A,,Clear,160,2013-07-12 22:55:00
6:15 PM,82.8,60.3,46,29.98,10.0,South,11.5,20.7,N/A,,Clear,180,2013-07-12 23:15:00
6:35 PM,82.2,59.5,46,29.97,10.0,South,15.0,21.9,N/A,,Clear,170,2013-07-12 23:35:00
6:55 PM,82.0,58.6,45,29.98,10.0,SSE,16.1,20.7,N/A,,Clear,160,2013-07-12 23:55:00
7:15 PM,81.1,58.6,46,29.97,10.0,SSE,10.4,17.3,N/A,,Clear,160,2013-07-13 00:15:00
7:35 PM,80.6,58.5,47,29.97,10.0,South,12.7,19.6,N/A,,Clear,170,2013-07-13 00:35:00
7:55 PM,79.7,59.2,49,29.97,10.0,SSE,11.5,17.3,N/A,,Clear,160,2013-07-13 00:55:00
8:15 PM,78.6,59.0,51,29.97,10.0,SSE,12.7,19.6,N/A,,Clear,160,2013-07-13 01:15:00
8:35 PM,77.9,59.0,52,29.96,10.0,SSE,12.7,19.6,N/A,,Clear,160,2013-07-13 01:35:00
8:55 PM,76.8,58.8,54,29.96,10.0,SSE,11.5,17.3,N/A,,Clear,160,2013-07-13 01:55:00
9:15 PM,75.6,59.4,57,29.96,10.0,SSE,10.4,-,N/A,,Clear,150,2013-07-13 02:15:00
9:35 PM,75.2,59.9,59,29.96,10.0,SSE,10.4,16.1,N/A,,Clear,160,2013-07-13 02:35:00
9:55 PM,74.7,59.9,60,29.97,10.0,SSE,9.2,-,N/A,,Clear,160,2013-07-13 02:55:00
10:15 PM,74.3,59.9,61,29.95,10.0,SSE,9.2,-,N/A,,Clear,160,2013-07-13 03:15:00
10:35 PM,73.8,59.4,61,29.96,10.0,SSE,11.5,18.4,N/A,,Clear,160,2013-07-13 03:35:00
10:55 PM,73.4,59.2,61,29.97,10.0,SSE,11.5,17.3,N/A,,Clear,160,2013-07-13 03:55:00
11:15 PM,73.0,58.6,61,29.98,10.0,South,11.5,18.4,N/A,,Clear,170,2013-07-13 04:15:00
11:35 PM,72.5,58.1,60,29.98,10.0,South,11.5,-,N/A,,Clear,170,2013-07-13 04:35:00
11:55 PM,72.5,57.4,59,29.99,10.0,South,9.2,-,N/A,,Clear,170,2013-07-13 04:55:00